Location: Feydey
(46.3431°N, 7.0106°E)
Time: 15:33:25
(UTC+00:00)

Meteor 1-4 Rocket - Pass Details

Date: 20 June 2021
Orbit: 447 x 499 km, 81.2° (Epoch: 02 August)

Event Time Altitude Azimuth Distance (km) Brightness Sun altitude
Rises 23:21:29 0° 343° (NNW) 2,479 7.6 -20.2°
Reaches altitude 10° 23:23:38 10° 336° (NNW) 1,595 6.2 -20.2°
Maximum altitude 23:26:56 42° 265° (W) 651 3.1 -20.2°
Enters shadow 23:27:00 42° 262° (W) 651 3.1 -20.2°
